Time,TemperatureF,DewpointF,PressureIn,WindDirection,WindDirectionDegrees,WindSpeedMPH,WindSpeedGustMPH,Humidity,HourlyPrecipIn,Conditions,Clouds,dailyrainin,SoftwareType,DateUTC
2013-02-18 00:07:00,18.6,15.0,30.32,WNW,294,0.0,0.0,87,0.00,,,0.00,weatherlink.com 1.10,2013-02-18 05:07:00,
2013-02-18 00:23:00,18.5,15.0,30.32,WNW,294,1.0,3.0,87,0.00,,,0.00,weatherlink.com 1.10,2013-02-18 05:23:00,
2013-02-18 00:38:00,18.3,15.0,30.34,WNW,294,0.0,1.0,87,0.00,,,0.00,weatherlink.com 1.10,2013-02-18 05:38:00,
2013-02-18 00:53:00,17.7,15.0,30.34,WNW,294,1.0,2.0,89,0.00,,,0.00,weatherlink.com 1.10,2013-02-18 05:53:00,
2013-02-18 01:08:00,17.8,15.0,30.34,WNW,294,0.0,4.0,89,0.00,,,0.00,weatherlink.com 1.10,2013-02-18 06:08:00,
2013-02-18 01:23:00,17.1,14.0,30.34,SSE,160,0.0,2.0,88,0.00,,,0.00,weatherlink.com 1.10,2013-02-18 06:23:00,
2013-02-18 01:38:00,17.1,15.0,30.33,WNW,285,2.0,3.0,90,0.00,,,0.00,weatherlink.com 1.10,2013-02-18 06:38:00,
2013-02-18 01:53:00,17.1,14.0,30.34,SSE,162,2.0,2.0,89,0.00,,,0.00,weatherlink.com 1.10,2013-02-18 06:53:00,
2013-02-18 02:08:00,17.0,15.0,30.34,ESE,120,1.0,1.0,90,0.00,,,0.00,weatherlink.com 1.10,2013-02-18 07:08:00,
2013-02-18 02:23:00,16.8,14.0,30.35,WNW,282,0.0,4.0,89,0.00,,,0.00,weatherlink.com 1.10,2013-02-18 07:23:00,
2013-02-18 02:38:00,16.5,14.0,30.35,WNW,282,0.0,0.0,89,0.00,,,0.00,weatherlink.com 1.10,2013-02-18 07:38:00,
2013-02-18 03:08:00,16.1,14.0,30.35,WNW,282,0.0,0.0,89,0.00,,,0.00,weatherlink.com 1.10,2013-02-18 08:08:00,
2013-02-18 03:23:00,15.6,13.0,30.36,SW,226,0.0,2.0,89,0.00,,,0.00,weatherlink.com 1.10,2013-02-18 08:23:00,
2013-02-18 03:38:00,15.5,13.0,30.36,WSW,251,0.0,2.0,90,0.00,,,0.00,weatherlink.com 1.10,2013-02-18 08:38:00,
2013-02-18 03:53:00,15.4,13.0,30.36,WSW,251,0.0,0.0,91,0.00,,,0.00,weatherlink.com 1.10,2013-02-18 08:53:00,
2013-02-18 04:08:00,15.2,13.0,30.36,WSW,251,0.0,0.0,90,0.00,,,0.00,weatherlink.com 1.10,2013-02-18 09:08:00,
2013-02-18 04:23:00,14.9,13.0,30.36,WSW,251,0.0,0.0,90,0.00,,,0.00,weatherlink.com 1.10,2013-02-18 09:23:00,
2013-02-18 04:38:00,14.9,13.0,30.37,WSW,251,0.0,1.0,91,0.00,,,0.00,weatherlink.com 1.10,2013-02-18 09:38:00,
2013-02-18 04:53:00,14.7,12.0,30.38,WSW,251,0.0,0.0,90,0.00,,,0.00,weatherlink.com 1.10,2013-02-18 09:53:00,
2013-02-18 05:08:00,14.6,12.0,30.38,WSW,251,0.0,0.0,90,0.00,,,0.00,weatherlink.com 1.10,2013-02-18 10:08:00,
2013-02-18 05:23:00,14.5,12.0,30.39,WSW,251,0.0,0.0,90,0.00,,,0.00,weatherlink.com 1.10,2013-02-18 10:23:00,
2013-02-18 05:38:00,14.3,12.0,30.39,WSW,251,0.0,0.0,90,0.00,,,0.00,weatherlink.com 1.10,2013-02-18 10:38:00,
2013-02-18 05:53:00,14.1,12.0,30.40,WSW,251,0.0,0.0,91,0.00,,,0.00,weatherlink.com 1.10,2013-02-18 10:53:00,
2013-02-18 06:08:00,14.1,12.0,30.41,WSW,251,0.0,0.0,91,0.00,,,0.00,weatherlink.com 1.10,2013-02-18 11:08:00,
2013-02-18 06:23:00,14.1,12.0,30.41,WSW,251,0.0,0.0,91,0.00,,,0.00,weatherlink.com 1.10,2013-02-18 11:23:00,
2013-02-18 06:38:00,14.0,12.0,30.41,WSW,251,0.0,0.0,90,0.00,,,0.00,weatherlink.com 1.10,2013-02-18 11:38:00,
2013-02-18 06:53:00,14.1,12.0,30.41,WSW,251,0.0,2.0,91,0.00,,,0.00,weatherlink.com 1.10,2013-02-18 11:53:00,
2013-02-18 07:08:00,14.0,12.0,30.41,WSW,251,0.0,0.0,90,0.00,,,0.00,weatherlink.com 1.10,2013-02-18 12:08:00,
2013-02-18 07:23:00,14.2,12.0,30.42,WSW,251,0.0,1.0,90,0.00,,,0.00,weatherlink.com 1.10,2013-02-18 12:23:00,
2013-02-18 07:38:00,15.6,14.0,30.42,WSW,251,0.0,0.0,91,0.00,,,0.00,weatherlink.com 1.10,2013-02-18 12:38:00,
2013-02-18 07:53:00,18.0,16.0,30.43,WSW,251,0.0,0.0,92,0.00,,,0.00,weatherlink.com 1.10,2013-02-18 12:53:00,
2013-02-18 08:09:00,20.2,18.0,30.43,WSW,251,0.0,0.0,90,0.00,,,0.00,weatherlink.com 1.10,2013-02-18 13:09:00,
2013-02-18 08:24:00,22.7,19.0,30.44,WSW,251,0.0,0.0,86,0.00,,,0.00,weatherlink.com 1.10,2013-02-18 13:24:00,
2013-02-18 08:39:00,25.0,20.0,30.44,South,188,1.0,2.0,81,0.00,,,0.00,weatherlink.com 1.10,2013-02-18 13:39:00,
2013-02-18 08:54:00,27.0,21.0,30.44,NW,321,0.0,1.0,77,0.00,,,0.00,weatherlink.com 1.10,2013-02-18 13:54:00,
2013-02-18 09:09:00,28.7,22.0,30.44,South,183,0.0,2.0,75,0.00,,,0.00,weatherlink.com 1.10,2013-02-18 14:09:00,
2013-02-18 09:24:00,30.2,23.0,30.44,SE,129,0.0,2.0,74,0.00,,,0.00,weatherlink.com 1.10,2013-02-18 14:24:00,
2013-02-18 09:39:00,31.8,22.0,30.44,ESE,116,1.0,2.0,67,0.00,,,0.00,weatherlink.com 1.10,2013-02-18 14:39:00,
2013-02-18 09:54:00,33.8,23.0,30.44,ESE,116,1.0,2.0,65,0.01,,,0.01,weatherlink.com 1.10,2013-02-18 14:54:00,
2013-02-18 10:09:00,35.8,21.0,30.43,SE,141,1.0,5.0,56,0.01,,,0.01,weatherlink.com 1.10,2013-02-18 15:09:00,
2013-02-18 10:24:00,36.8,21.0,30.43,SE,130,2.0,6.0,53,0.01,,,0.01,weatherlink.com 1.10,2013-02-18 15:24:00,
2013-02-18 10:39:00,37.9,20.0,30.43,SSE,149,0.0,6.0,49,0.02,,,0.02,weatherlink.com 1.10,2013-02-18 15:39:00,
2013-02-18 10:54:00,39.3,21.0,30.43,SE,131,2.0,6.0,49,0.01,,,0.02,weatherlink.com 1.10,2013-02-18 15:54:00,
2013-02-18 11:09:00,40.4,21.0,30.42,ESE,109,6.0,8.0,47,0.02,,,0.03,weatherlink.com 1.10,2013-02-18 16:09:00,
2013-02-18 11:24:00,41.1,22.0,30.41,SSE,147,5.0,7.0,46,0.02,,,0.04,weatherlink.com 1.10,2013-02-18 16:24:00,
2013-02-18 11:39:00,42.4,21.0,30.41,SE,133,1.0,7.0,42,0.02,,,0.04,weatherlink.com 1.10,2013-02-18 16:39:00,
2013-02-18 11:55:00,43.6,22.0,30.41,South,188,0.0,7.0,43,0.03,,,0.05,weatherlink.com 1.10,2013-02-18 16:55:00,
2013-02-18 12:10:00,44.6,23.0,30.40,ESE,122,5.0,10.0,43,0.02,,,0.05,weatherlink.com 1.10,2013-02-18 17:10:00,
2013-02-18 12:25:00,45.3,22.0,30.39,SSE,165,8.0,9.0,40,0.02,,,0.06,weatherlink.com 1.10,2013-02-18 17:25:00,
2013-02-18 12:40:00,46.2,24.0,30.38,ESE,122,9.0,12.0,42,0.02,,,0.06,weatherlink.com 1.10,2013-02-18 17:40:00,
2013-02-18 12:55:00,46.3,24.0,30.37,SE,126,3.0,14.0,41,0.01,,,0.06,weatherlink.com 1.10,2013-02-18 17:55:00,
2013-02-18 13:10:00,46.6,23.0,30.36,SSE,164,2.0,14.0,39,0.01,,,0.06,weatherlink.com 1.10,2013-02-18 18:10:00,
2013-02-18 13:25:00,47.8,24.0,30.35,South,189,8.0,13.0,40,0.01,,,0.07,weatherlink.com 1.10,2013-02-18 18:25:00,
2013-02-18 13:40:00,48.6,24.0,30.34,SSW,203,9.0,13.0,39,0.01,,,0.07,weatherlink.com 1.10,2013-02-18 18:40:00,
2013-02-18 13:55:00,49.0,24.0,30.33,SE,138,4.0,9.0,37,0.01,,,0.07,weatherlink.com 1.10,2013-02-18 18:55:00,
2013-02-18 14:10:00,48.9,25.0,30.33,SE,124,4.0,15.0,39,0.01,,,0.07,weatherlink.com 1.10,2013-02-18 19:10:00,
2013-02-18 14:25:00,49.7,24.0,30.32,SSE,164,9.0,14.0,37,0.00,,,0.07,weatherlink.com 1.10,2013-02-18 19:25:00,
2013-02-18 14:40:00,49.8,26.0,30.31,South,173,4.0,10.0,40,0.00,,,0.07,weatherlink.com 1.10,2013-02-18 19:40:00,
2013-02-18 14:55:00,50.3,25.0,30.30,SSE,148,7.0,10.0,37,0.00,,,0.07,weatherlink.com 1.10,2013-02-18 19:55:00,
2013-02-18 15:10:00,51.8,25.0,30.30,SW,227,3.0,8.0,36,0.00,,,0.07,weatherlink.com 1.10,2013-02-18 20:10:00,
2013-02-18 15:25:00,51.9,26.0,30.30,SSE,165,2.0,12.0,37,0.00,,,0.07,weatherlink.com 1.10,2013-02-18 20:25:00,
2013-02-18 15:40:00,52.1,25.0,30.29,SE,146,6.0,9.0,35,0.00,,,0.07,weatherlink.com 1.10,2013-02-18 20:40:00,
2013-02-18 15:55:00,51.6,25.0,30.29,SE,136,7.0,17.0,36,0.00,,,0.07,weatherlink.com 1.10,2013-02-18 20:55:00,
2013-02-18 16:10:00,51.4,27.0,30.29,SSE,165,9.0,11.0,39,0.00,,,0.07,weatherlink.com 1.10,2013-02-18 21:10:00,
2013-02-18 16:25:00,51.1,25.0,30.29,SE,134,10.0,12.0,37,0.00,,,0.07,weatherlink.com 1.10,2013-02-18 21:25:00,
2013-02-18 16:40:00,50.5,26.0,30.29,SE,146,6.0,10.0,38,0.00,,,0.07,weatherlink.com 1.10,2013-02-18 21:40:00,
2013-02-18 16:55:00,50.4,25.0,30.29,SE,145,5.0,13.0,38,0.00,,,0.07,weatherlink.com 1.10,2013-02-18 21:55:00,
2013-02-18 17:10:00,50.2,25.0,30.29,SSE,152,9.0,10.0,38,0.00,,,0.07,weatherlink.com 1.10,2013-02-18 22:10:00,
2013-02-18 17:25:00,49.6,25.0,30.29,ESE,120,6.0,12.0,39,0.00,,,0.07,weatherlink.com 1.10,2013-02-18 22:25:00,
2013-02-18 17:40:00,48.8,26.0,30.29,SSE,156,5.0,8.0,41,0.00,,,0.07,weatherlink.com 1.10,2013-02-18 22:40:00,
2013-02-18 17:55:00,47.8,26.0,30.29,SE,139,3.0,5.0,42,0.00,,,0.07,weatherlink.com 1.10,2013-02-18 22:55:00,
2013-02-18 18:10:00,46.8,26.0,30.29,SE,141,0.0,3.0,45,0.00,,,0.07,weatherlink.com 1.10,2013-02-18 23:10:00,
2013-02-18 18:25:00,44.1,26.0,30.30,SE,139,2.0,3.0,50,0.00,,,0.07,weatherlink.com 1.10,2013-02-18 23:25:00,
2013-02-18 18:40:00,43.2,26.0,30.30,SSE,147,2.0,3.0,51,0.00,,,0.07,weatherlink.com 1.10,2013-02-18 23:40:00,
2013-02-18 18:55:00,43.0,25.0,30.30,SSE,148,1.0,5.0,50,0.00,,,0.07,weatherlink.com 1.10,2013-02-18 23:55:00,
2013-02-18 19:10:00,43.7,24.0,30.30,SSE,158,4.0,8.0,47,0.00,,,0.07,weatherlink.com 1.10,2013-02-19 00:10:00,
2013-02-18 19:40:00,43.3,24.0,30.30,SE,133,3.0,6.0,47,0.00,,,0.07,weatherlink.com 1.10,2013-02-19 00:40:00,
2013-02-18 19:55:00,43.5,24.0,30.29,SE,130,4.0,7.0,46,0.00,,,0.07,weatherlink.com 1.10,2013-02-19 00:55:00,
2013-02-18 20:10:00,43.4,24.0,30.29,SE,139,3.0,5.0,47,0.00,,,0.07,weatherlink.com 1.10,2013-02-19 01:10:00,
2013-02-18 20:25:00,43.1,24.0,30.29,SE,146,3.0,7.0,47,0.00,,,0.07,weatherlink.com 1.10,2013-02-19 01:25:00,
2013-02-18 20:55:00,42.8,24.0,30.28,SE,142,6.0,9.0,47,0.00,,,0.07,weatherlink.com 1.10,2013-02-19 01:55:00,
2013-02-18 21:10:00,42.6,23.0,30.28,SSE,156,6.0,8.0,47,0.00,,,0.07,weatherlink.com 1.10,2013-02-19 02:10:00,
2013-02-18 21:25:00,42.4,24.0,30.28,SSE,158,6.0,8.0,48,0.00,,,0.07,weatherlink.com 1.10,2013-02-19 02:25:00,
2013-02-18 21:41:00,42.3,24.0,30.27,SSE,154,5.0,10.0,48,0.00,,,0.07,weatherlink.com 1.10,2013-02-19 02:41:00,
2013-02-18 21:56:00,42.7,24.0,30.27,South,182,5.0,9.0,48,0.00,,,0.07,weatherlink.com 1.10,2013-02-19 02:56:00,
2013-02-18 22:11:00,42.9,24.0,30.27,SSE,155,8.0,9.0,48,0.00,,,0.07,weatherlink.com 1.10,2013-02-19 03:11:00,
2013-02-18 22:26:00,43.4,24.0,30.27,South,178,2.0,9.0,46,0.00,,,0.07,weatherlink.com 1.10,2013-02-19 03:26:00,
2013-02-18 22:41:00,42.8,24.0,30.27,SE,134,0.0,4.0,48,0.00,,,0.07,weatherlink.com 1.10,2013-02-19 03:41:00,
2013-02-18 22:56:00,40.8,25.0,30.26,SE,134,0.0,1.0,53,0.00,,,0.07,weatherlink.com 1.10,2013-02-19 03:56:00,
2013-02-18 23:11:00,38.3,25.0,30.26,SE,134,0.0,1.0,60,0.00,,,0.07,weatherlink.com 1.10,2013-02-19 04:11:00,
2013-02-18 23:26:00,36.2,25.0,30.26,SSW,199,0.0,2.0,63,0.00,,,0.07,weatherlink.com 1.10,2013-02-19 04:26:00,
2013-02-18 23:41:00,35.2,25.0,30.25,SSW,193,0.0,1.0,67,0.00,,,0.07,weatherlink.com 1.10,2013-02-19 04:41:00,
2013-02-18 23:56:00,33.9,26.0,30.24,ESE,113,2.0,3.0,72,0.00,,,0.07,weatherlink.com 1.10,2013-02-19 04:56:00,